Location: Ward Pound Ridge Reservation
(41.2500°N, 73.6000°W)
Time: 13:32:35
(UTC-04:00)

Envisat - Pass Details

Date: 09 October 2017
Orbit: 764 x 766 km, 98.2° (Epoch: 22 October)

Event Time Altitude Azimuth Distance (km) Brightness Sun altitude
Exits shadow 20:04:27 38° 78° (ENE) 1,150 3.4 -19.9°
Maximum altitude 20:04:45 39° 70° (ENE) 1,143 3.4 -20.0°
Drops below altitude 10° 20:09:26 10° 3° (N) 2,310 5.6 -20.8°
Sets 20:11:52 0° 355° (N) 3,241 6.4 -21.3°
